Port Angeles, WA
on Monday, December 10, 2012

Monday
Previous Day Next Day
Daily Summary
 ActualAverageRecord
Temperature
Mean Temperature °F °F  
Max Temperature 48°F 47°F 60°F (1956)
Min Temperature 37°F 35°F 22°F (1972)
Degree Days
Heating Degree Days 22    
Moisture
Dew Point 39°F   
Average Humidity 89    
Maximum Humidity 97    
Minimum Humidity 79    
Precipitation
Precipitation 0.00 in in in ()
Wind
Wind Speed 3 mph   
Max Wind Speed 9 mph   
Max Gust Speed mph   
Visibility 10 miles   
Events     
Averages and records for this station are not official NWS values.
Key: T is trace of precipitation, MM is missing value
Source: NWS Daily Summary
Seasonal Weather Averages
Time(PST)TemperatureDew PointHumidity Pressure Visibility Wind DirectionWind SpeedGust SpeedPrecipitationEvents Conditions
12:06 AM 39.0°F 37.0°F 93% 30.36 in 10.0 miles South 3.5 mph - N/A   Overcast
12:31 AM 39.0°F 37.0°F 93% 30.36 in 10.0 miles Calm Calm - N/A   Overcast
12:53 AM 41.0°F 39.0°F 93% 30.38 in 10.0 miles Calm Calm - N/A   Overcast
1:53 AM 41.0°F 39.9°F 96% 30.41 in 10.0 miles SW 3.5 mph - N/A   Overcast
2:53 AM 42.1°F 39.9°F 92% 30.41 in 10.0 miles Calm Calm - N/A   Overcast
3:31 AM 42.1°F 39.9°F 92% 30.40 in 10.0 miles Calm Calm - N/A   Overcast
3:53 AM 39.9°F 39.0°F 97% 30.41 in 7.0 miles Calm Calm - N/A   Overcast
4:18 AM 41.0°F 39.0°F 93% 30.40 in 10.0 miles SW 5.8 mph - N/A   Overcast
4:39 AM 41.0°F 39.0°F 93% 30.39 in 10.0 miles SW 3.5 mph - N/A   Overcast
4:53 AM 41.0°F 39.0°F 93% 30.40 in 10.0 miles WSW 3.5 mph - N/A   Overcast
5:53 AM 42.1°F 39.0°F 89% 30.41 in 10.0 miles Calm Calm - N/A   Overcast
6:53 AM 42.1°F 39.0°F 89% 30.41 in 10.0 miles Calm Calm - N/A   Overcast
7:53 AM 41.0°F 39.0°F 93% 30.40 in 10.0 miles Calm Calm - N/A   Overcast
8:30 AM 42.1°F 39.0°F 89% 30.39 in 10.0 miles Calm Calm - N/A   Overcast
8:53 AM 42.1°F 39.9°F 92% 30.40 in 10.0 miles Calm Calm - N/A   Overcast
9:53 AM 43.0°F 39.0°F 86% 30.40 in 10.0 miles West 8.1 mph - N/A   Clear
10:22 AM 44.1°F 39.9°F 85% 30.40 in 10.0 miles WSW 6.9 mph - N/A   Overcast
10:53 AM 45.0°F 41.0°F 86% 30.40 in 10.0 miles West 8.1 mph - N/A   Overcast
11:53 AM 46.0°F 39.9°F 79% 30.37 in 10.0 miles West 8.1 mph - N/A   Overcast
12:53 PM 46.0°F 41.0°F 83% 30.35 in 10.0 miles West 5.8 mph - N/A   Overcast
1:53 PM 48.0°F 42.1°F 80% 30.33 in 10.0 miles WSW 3.5 mph - N/A   Overcast
2:29 PM 48.0°F 42.1°F 80% 30.33 in 10.0 miles West 6.9 mph - N/A   Overcast
2:53 PM 48.0°F 43.0°F 83% 30.32 in 10.0 miles West 4.6 mph - N/A   Overcast
3:53 PM 46.9°F 42.1°F 83% 30.31 in 10.0 miles WNW 9.2 mph - N/A   Overcast
4:53 PM 46.0°F 41.0°F 83% 30.30 in 10.0 miles SSW 4.6 mph - N/A   Clear
5:53 PM 45.0°F 39.9°F 82% 30.27 in 10.0 miles West 3.5 mph - N/A   Clear
6:53 PM 44.1°F 39.9°F 85% 30.24 in 10.0 miles Calm Calm - N/A   Clear
7:42 PM 39.9°F 37.9°F 93% 30.21 in 10.0 miles Calm Calm - N/A   Mostly Cloudy
7:53 PM 39.9°F 37.9°F 93% 30.22 in 10.0 miles SW 3.5 mph - N/A   Mostly Cloudy
8:19 PM 39.9°F 37.0°F 89% 30.18 in 10.0 miles Calm Calm - N/A   Scattered Clouds
8:53 PM 39.9°F 37.9°F 93% 30.16 in 10.0 miles SW 4.6 mph - N/A   Clear
9:53 PM 39.0°F 37.0°F 93% 30.15 in 10.0 miles SW 5.8 mph - N/A   Partly Cloudy
10:15 PM 39.0°F 37.0°F 93% 30.14 in 9.0 miles WSW 6.9 mph - N/A   Mostly Cloudy
10:53 PM 39.0°F 37.9°F 96% 30.09 in 10.0 miles Calm Calm - N/A   Overcast
11:18 PM 37.0°F 36.0°F 96% 30.05 in 9.0 miles SSE 3.5 mph - N/A   Scattered Clouds
11:53 PM 39.0°F 37.0°F 93% 30.04 in 10.0 miles SSW 5.8 mph - N/A   Mostly Cloudy
Moon Phase
Dec. 10 Dec. 13 Dec. 20 Dec. 28 Jan. 04
Sunrise:07:53 AM (PST) Moon Rise:04:35 AM (PST)12/10
Sunset:04:20 PM (PST) Moon Set:02:20 PM (PST)12/10

Copyright © 2014 The Weather Underground, Inc.